H1 CPF 2 NER 2023 7 15 9 196 01 glonass143 H2 2007501 9143 46805 2023 7 15 0 0 0 2023 7 18 23 45 0 900 1 1 0 0 0 1 H9 10 0 60140 0.00000 0 13067252.953 -3464619.267 21649464.158 10 0 60140 900.00000 0 11931974.132 -989513.845 22540184.575 10 0 60140 1800.00000 0 10951873.964 1639571.923 22993927.029 10 0 60140 2700.00000 0 10157890.546 4360478.436 23001842.498 10 0 60140 3600.00000 0 9569663.342 7106318.409 22563705.356 10 0 60140 4500.00000 0 9194782.527 9808015.205 21687923.297 10 0 60140 5400.00000 0 9028559.585 12396940.472 20391382.512 10 0 60140 6300.00000 0 9054328.832 14807542.969 18699130.325 10 0 60140 7200.00000 0 9244267.506 16979860.383 16643900.497 10 0 60140 8100.00000 0 9560700.403 18861810.497 14265489.237 10 0 60140 9000.00000 0 9957834.691 20411166.659 11609992.875 10 0 60140 9900.00000 0 10383852.231 21597135.270 8728920.981 10 0 60140 10800.00000 0 10783271.420 22401469.199 5678201.345 10 0 60140 11700.00000 0 11099478.752 22819070.280 2517095.624 10 0 60140 12600.00000 0 11277322.730 22858055.236 -692953.303 10 0 60140 13500.00000 0 11265659.642 22539282.062 -3889519.670 10 0 60140 14400.00000 0 11019742.412 21895356.652 -7010414.962 10 0 60140 15300.00000 0 10503350.087 20969161.604 -9994905.283 10 0 60140 16200.00000 0 9690566.341 19811969.527 -12784901.330 10 0 60140 17100.00000 0 8567130.214 18481220.854 -15326096.905 10 0 60140 18000.00000 0 7131300.438 17038060.514 -17569032.874 10 0 60140 18900.00000 0 5394195.424 15544737.908 -19470065.239 10 0 60140 19800.00000 0 3379593.224 14061980.394 -20992218.039 10 0 60140 20700.00000 0 1123198.753 12646451.305 -22105904.273 10 0 60140 21600.00000 0 -1328591.949 11348399.716 -22789500.898 10 0 60140 22500.00000 0 -3920379.436 10209600.742 -23029766.950 10 0 60140 23400.00000 0 -6589830.571 9261672.609 -22822097.058 10 0 60140 24300.00000 0 -9270044.297 8524840.568 -22170605.835 10 0 60140 25200.00000 0 -11892115.237 8007198.673 -21088041.987 10 0 60140 26100.00000 0 -14387788.617 7704499.370 -19595534.200 10 0 60140 27000.00000 0 -16692096.315 7600478.504 -17722174.102 10 0 60140 27900.00000 0 -18745864.703 7667700.773 -15504444.685 10 0 60140 28800.00000 0 -20497990.299 7868888.805 -12985505.542 10 0 60140 29700.00000 0 -21907389.043 8158678.628 -10214349.037 10 0 60140 30600.00000 0 -22944538.704 8485726.469 -7244844.011 10 0 60140 31500.00000 0 -23592550.945 8795077.056 -4134685.888 10 0 60140 32400.00000 0 -23847729.370 9030692.673 -944273.843 10 0 60140 33300.00000 0 -23719591.385 9138035.590 2264462.900 10 0 60140 34200.00000 0 -23230354.214 9066594.349 5429266.572 10 0 60140 35100.00000 0 -22413907.772 8772246.966 8488756.702 10 0 60140 36000.00000 0 -21314318.523 8219361.055 11383616.890 10 0 60140 36900.00000 0 -19983927.869 7382542.185 14057739.628 10 0 60140 37800.00000 0 -18481125.332 6247956.543 16459307.363 10 0 60140 38700.00000 0 -16867890.027 4814171.935 18541789.413 10 0 60140 39600.00000 0 -15207203.251 3092481.243 20264836.153 10 0 60140 40500.00000 0 -13560440.023 1106693.942 21595053.994 10 0 60140 41400.00000 0 -11984847.920 -1107596.717 22506646.988 10 0 60140 42300.00000 0 -10531217.724 -3504241.628 22981913.394 10 0 60140 43200.00000 0 -9241842.226 -6028209.280 23011588.115 10 0 60140 44100.00000 0 -8148847.535 -8617636.821 22595024.703 10 0 60140 45000.00000 0 -7272965.831 -11206175.211 21740213.285 10 0 60140 45900.00000 0 -6622800.272 -13725532.665 20463633.703 10 0 60140 46800.00000 0 -6194612.460 -16108112.200 18789945.957 10 0 60140 47700.00000 0 -5972641.247 -18289634.796 16751522.973 10 0 60140 48600.00000 0 -5929939.597 -20211639.871 14387833.655 10 0 60140 49500.00000 0 -6029694.513 -21823759.364 11744687.001 10 0 60140 50400.00000 0 -6226974.703 -23085670.635 8873350.936 10 0 60140 51300.00000 0 -6470832.441 -23968646.340 5829562.172 10 0 60140 52200.00000 0 -6706670.794 -24456635.998 2672445.774 10 0 60140 53100.00000 0 -6878775.852 -24546833.308 -536634.654 10 0 60140 54000.00000 0 -6932906.162 -24249704.899 -3735273.592 10 0 60140 54900.00000 0 -6818828.803 -23588478.839 -6861243.240 10 0 60140 55800.00000 0 -6492693.466 -22598114.194 -9853711.577 10 0 60140 56700.00000 0 -5919142.629 -21323795.022 -12654434.247 10 0 60140 57600.00000 0 -5073066.962 -19819012.405 -15208896.103 10 0 60140 58500.00000 0 -3940930.179 -18143315.717 -17467379.312 10 0 60140 59400.00000 0 -2521605.890 -16359828.270 -19385936.564 10 0 60140 60300.00000 0 -826689.722 -14532632.369 -20927249.973 10 0 60140 61200.00000 0 1119727.624 -12724134.153 -22061358.789 10 0 60140 62100.00000 0 3281817.943 -10992519.157 -22766241.766 10 0 60140 63000.00000 0 5613272.822 -9389405.370 -23028243.148 10 0 60140 63900.00000 0 8059008.682 -7957791.978 -22842334.317 10 0 60140 64800.00000 0 10557248.848 -6730389.146 -22212206.484 10 0 60140 65700.00000 0 13041896.104 -5728397.947 -21150193.059 10 0 60140 66600.00000 0 15445097.053 -4960790.410 -19677023.599 10 0 60140 67500.00000 0 17699891.629 -4424118.500 -17821414.509 10 0 60140 68400.00000 0 19742837.585 -4102858.498 -15619504.689 10 0 60140 69300.00000 0 21516500.796 -3970274.775 -13114147.392 10 0 60140 70200.00000 0 22971707.897 -3989765.039 -10354072.269 10 0 60140 71100.00000 0 24069467.761 -4116628.990 -7392934.102 10 0 60140 72000.00000 0 24782482.161 -4300184.519 -4288267.008 10 0 60140 72900.00000 0 25096183.264 -4486141.073 -1100364.676 10 0 60140 73800.00000 0 25009255.436 -4619129.123 2108891.337 10 0 60140 74700.00000 0 24533620.493 -4645278.231 5277232.240 10 0 60140 75600.00000 0 23693887.957 -4514734.378 8343208.120 10 0 60140 76500.00000 0 22526294.262 -4184009.950 11247376.127 10 0 60140 77400.00000 0 21077176.059 -3618067.040 13933447.819 10 0 60140 78300.00000 0 19401042.068 -2792046.010 16349373.777 10 0 60140 79200.00000 0 17558324.341 -1692566.314 18448345.072 10 0 60140 80100.00000 0 15612902.913 -318544.462 20189692.846 10 0 60140 81000.00000 0 13629506.811 1318505.854 21539669.451 10 0 60140 81900.00000 0 11671099.224 3194704.963 22472096.841 10 0 60140 82800.00000 0 9796355.034 5274561.310 22968870.426 10 0 60140 83700.00000 0 8057334.827 7512218.401 23020309.180 10 0 60140 84600.00000 0 6497451.277 9853144.336 22625345.538 10 0 60140 85500.00000 0 5149811.708 12236195.258 21791551.351 10 0 60141 0.00000 0 4036005.185 14595968.383 20534999.135 10 0 60141 900.00000 0 3165383.565 16865349.545 18879959.860 10 0 60141 1800.00000 0 2534867.564 18978147.342 16858443.921 10 0 60141 2700.00000 0 2129283.724 20871709.345 14509590.856 10 0 60141 3600.00000 0 1922219.604 22489408.689 11878920.043 10 0 60141 4500.00000 0 1877360.600 23782898.599 9017455.309 10 0 60141 5400.00000 0 1950252.188 24714040.173 5980739.697 10 0 60141 6300.00000 0 2090413.117 25256422.148 2827758.990 10 0 60141 7200.00000 0 2243709.967 25396408.184 -380205.210 10 0 60141 8100.00000 0 2354892.025 25133666.908 -3580770.344 10 0 60141 9000.00000 0 2370178.374 24481161.696 -6711671.954 10 0 60141 9900.00000 0 2239786.479 23464600.011 -9711982.378 10 0 60141 10800.00000 0 1920293.903 22121365.104 -12523304.473 10 0 60141 11700.00000 0 1376731.689 20498974.897 -15090916.188 10 0 60141 12600.00000 0 584319.359 18653132.960 -17364842.794 10 0 60141 13500.00000 0 -470233.305 16645453.822 -19300835.226 10 0 60141 14400.00000 0 -1787914.015 14540958.522 -20861235.038 10 0 60141 15300.00000 0 -3357120.761 12405445.909 -22015708.882 10 0 60141 16200.00000 0 -5153912.786 10302850.169 -22741838.282 10 0 60141 17100.00000 0 -7142790.114 8292695.351 -23025553.440 10 0 60141 18000.00000 0 -9277969.642 6427753.250 -22861403.001 10 0 60141 18900.00000 0 -11505104.904 4752002.144 -22252654.984 10 0 60141 19800.00000 0 -13763377.994 3298970.907 -21211227.365 10 0 60141 20700.00000 0 -15987876.479 2090536.634 -19757450.075 10 0 60141 21600.00000 0 -18112156.250 1136224.694 -17919663.417 10 0 60141 22500.00000 0 -20070883.466 433038.875 -15733660.985 10 0 60141 23400.00000 0 -21802445.404 -34172.975 -13241988.186 10 0 60141 24300.00000 0 -23251421.362 -291834.971 -10493110.219 10 0 60141 25200.00000 0 -24370810.625 -376279.764 -7540465.897 10 0 60141 26100.00000 0 -25123924.694 -331964.665 -4441425.975 10 0 60141 27000.00000 0 -25485865.062 -209343.926 -1256176.487 10 0 60141 27900.00000 0 -25444525.289 -62488.102 1953450.963 10 0 60141 28800.00000 0 -25001076.057 53448.081 5125178.962 10 0 60141 29700.00000 0 -24169913.585 84801.770 8197490.670 10 0 60141 30600.00000 0 -22978074.253 -18087.262 11110819.389 10 0 60141 31500.00000 0 -21464140.502 -298537.404 13808698.391 10 0 60141 32400.00000 0 -19676684.196 -791456.328 16238849.024 10 0 60141 33300.00000 0 -17672312.663 -1521629.770 18354186.643 10 0 60141 34200.00000 0 -15513398.938 -2502440.209 20113725.505 10 0 60141 35100.00000 0 -13265590.491 -3735069.662 21483365.987 10 0 60141 36000.00000 0 -10995199.566 -5208220.738 22436549.714 10 0 60141 36900.00000 0 -8766582.941 -6898368.539 22954770.649 10 0 60141 37800.00000 0 -6639619.050 -8770534.154 23027932.867 10 0 60141 38700.00000 0 -4667386.297 -10779548.906 22654548.343 10 0 60141 39600.00000 0 -2894138.027 -12871758.274 21841770.941 10 0 60141 40500.00000 0 -1353657.431 -14987096.109 20605265.538 10 0 60141 41400.00000 0 -68060.041 -17061444.351 18968914.130 10 0 60141 42300.00000 0 952906.881 -19029181.208 16964363.665 10 0 60141 43200.00000 0 1712039.256 -20825812.626 14630423.251 10 0 60141 44100.00000 0 2224318.404 -22390577.862 12012321.261 10 0 60141 45000.00000 0 2516035.735 -23668920.461 9160835.725 10 0 60141 45900.00000 0 2623436.907 -24614721.092 6131314.040 10 0 60141 46800.00000 0 2590942.746 -25192198.082 2982600.483 10 0 60141 47700.00000 0 2469022.381 -25377395.074 -224107.778 10 0 60141 48600.00000 0 2311808.968 -25159192.348 -3426453.756 10 0 60141 49500.00000 0 2174559.694 -24539798.230 -6562139.100 10 0 60141 50400.00000 0 2111068.554 -23534699.004 -9570143.398 10 0 60141 51300.00000 0 2171142.677 -22172068.671 -12391919.707 10 0 60141 52200.00000 0 2398250.409 -20491662.859 -14972542.090 10 0 60141 53100.00000 0 2827442.064 -18543243.141 -17261781.895 10 0 60141 54000.00000 0 3483632.689 -16384597.945 -19215091.156 10 0 60141 54900.00000 0 4380320.674 -14079243.219 -20794473.474 10 0 60141 55800.00000 0 5518797.441 -11693899.528 -21969225.200 10 0 60141 56700.00000 0 6887882.526 -9295851.405 -22716532.523 10 0 60141 57600.00000 0 8464196.045 -6950299.499 -23021913.059 10 0 60141 58500.00000 0 10212957.725 -4717816.086 -22879493.722 10 0 60141 59400.00000 0 12089279.506 -2652009.831 -22292119.889 10 0 60141 60300.00000 0 14039897.876 -797496.554 -21271294.222 10 0 60141 61200.00000 0 16005273.622 811740.226 -19836946.720 10 0 60141 62100.00000 0 17921971.264 2153531.850 -18017040.862 10 0 60141 63000.00000 0 19725218.686 3218202.328 -15847023.785 10 0 60141 63900.00000 0 21351539.904 4008714.792 -13369131.453 10 0 60141 64800.00000 0 22741350.847 4540282.346 -10631562.570 10 0 60141 65700.00000 0 23841409.588 4839461.550 -7687537.495 10 0 60141 66600.00000 0 24607018.532 4942768.482 -4594260.743 10 0 60141 67500.00000 0 25003886.567 4894877.276 -1411807.506 10 0 60141 68400.00000 0 25009573.437 4746478.527 1798043.965 10 0 60141 69300.00000 0 24614456.212 4551889.033 4973011.122 10 0 60141 70200.00000 0 23822177.765 4366514.652 8051513.647 10 0 60141 71100.00000 0 22649558.911 4244273.951 10973864.309 10 0 60141 72000.00000 0 21125978.226 4235091.710 13683421.164 10 0 60141 72900.00000 0 19292245.730 4382568.182 16127679.119 10 0 60141 73800.00000 0 17199017.522 4721922.373 18259280.268 10 0 60141 74700.00000 0 14904817.354 5278295.998 20036924.091 10 0 60141 75600.00000 0 12473747.157 6065489.562 21426160.734 10 0 60141 76500.00000 0 9972981.110 7085183.985 22400052.851 10 0 60141 77400.00000 0 7470146.572 8326681.023 22939693.931 10 0 60141 78300.00000 0 5030699.612 9767174.236 23034573.686 10 0 60141 79200.00000 0 2715402.919 11372540.372 22682783.729 10 0 60141 80100.00000 0 578009.704 13098619.487 21891059.569 10 0 60141 81000.00000 0 -1336751.369 14892931.887 20674657.736 10 0 60141 81900.00000 0 -2994807.381 16696761.760 19057069.748 10 0 60141 82800.00000 0 -4373921.400 18447521.884 17069577.517 10 0 60141 83700.00000 0 -5464373.155 20081301.784 14750657.695 10 0 60141 84600.00000 0 -6269112.149 21535493.628 12145245.348 10 0 60141 85500.00000 0 -6803377.083 22751386.272 9303870.201 10 0 60142 0.00000 0 -7093797.800 23676618.657 6281681.629 10 0 60142 900.00000 0 -7177017.870 24267389.540 3137379.107 10 0 60142 1800.00000 0 -7097895.872 24490328.740 -67927.172 10 0 60142 2700.00000 0 -6907362.295 24323951.770 -3271908.599 10 0 60142 3600.00000 0 -6660022.886 23759634.126 -6412235.680 10 0 60142 4500.00000 0 -6411610.947 22802063.598 -9427797.889 10 0 60142 5400.00000 0 -6216397.443 21469150.322 -12259900.951 10 0 60142 6300.00000 0 -6124669.784 19791397.508 -14853417.287 10 0 60142 7200.00000 0 -6180387.253 17810758.634 -17157866.328 10 0 60142 8100.00000 0 -6419113.516 15579028.717 -19128402.943 10 0 60142 9000.00000 0 -6866314.792 13155836.997 -20726694.267 10 0 60142 9900.00000 0 -7536096.542 10606325.119 -21921667.585 10 0 60142 10800.00000 0 -8430432.889 7998608.049 -22690114.733 10 0 60142 11700.00000 0 -9538921.866 5401123.836 -23017141.464 10 0 60142 12600.00000 0 -10839077.334 2879982.830 -22896453.384 10 0 60142 13500.00000 0 -12297145.650 496426.609 -22330473.338 10 0 60142 14400.00000 0 -13869413.006 -1695497.984 -21330288.417 10 0 60142 15300.00000 0 -15503948.673 -3650953.545 -19915428.058 10 0 60142 16200.00000 0 -17142711.082 -5335932.702 -18113477.912 10 0 60142 17100.00000 0 -18723928.381 -6728418.407 -15959537.314 10 0 60142 18000.00000 0 -20184653.585 -7819037.106 -13495531.145 10 0 60142 18900.00000 0 -21463387.097 -8611179.322 -10769389.741 10 0 60142 19800.00000 0 -22502656.566 -9120584.536 -7834112.952 10 0 60142 20700.00000 0 -23251445.788 -9374409.711 -4746736.881 10 0 60142 21600.00000 0 -23667370.802 -9409822.425 -1567223.576 10 0 60142 22500.00000 0 -23718511.919 -9272179.497 1642704.445 10 0 60142 23400.00000 0 -23384825.001 -9012869.194 4820761.975 10 0 60142 24300.00000 0 -22659072.947 -8686909.136 7905307.778 10 0 60142 25200.00000 0 -21547238.535 -8350401.946 10836536.691 10 0 60142 26100.00000 0 -20068401.475 -8057956.478 13557634.174 10 0 60142 27000.00000 0 -18254084.868 -7860183.526 16015871.245 10 0 60142 27900.00000 0 -16147098.238 -7801371.589 18163619.156 10 0 60142 28800.00000 0 -13799925.125 -7917440.413 19959264.813 10 0 60142 29700.00000 0 -11272721.879 -8234258.321 21368010.044 10 0 60142 30600.00000 0 -8631010.113 -8766394.028 22362540.110 10 0 60142 31500.00000 0 -5943157.751 -9516355.515 22923549.234 10 0 60142 32400.00000 0 -3277752.092 -10474348.395 23040113.604 10 0 60142 33300.00000 0 -700972.594 -11618564.637 22709904.955 10 0 60142 34200.00000 0 1725928.863 -12915990.634 21939240.591 10 0 60142 35100.00000 0 3948936.928 -14323702.086 20742968.532 10 0 60142 36000.00000 0 5923276.142 -15790592.891 19144189.359 10 0 60142 36900.00000 0 7615026.315 -17259467.084 17173819.188 10 0 60142 37800.00000 0 9002283.350 -18669407.427 14870001.145 10 0 60142 38700.00000 0 10075817.609 -19958322.375 12277375.601 10 0 60142 39600.00000 0 10839202.598 -21065565.110 9446222.255 10 0 60142 40500.00000 0 11308408.848 -21934514.832 6431489.867 10 0 60142 41400.00000 0 11510880.266 -22515011.473 3291731.867 10 0 60142 42300.00000 0 11484132.110 -22765540.667 87968.383 10 0 60142 43200.00000 0 11273930.065 -22655075.898 -3117503.103 10 0 60142 44100.00000 0 10932127.914 -22164498.944 -6262324.825 10 0 60142 45000.00000 0 10514255.929 -21287537.350 -9285299.077 10 0 60142 45900.00000 0 10076962.956 -20031178.110 -12127587.195 10 0 60142 46800.00000 0 9675421.467 -18415538.861 -14733862.867 10 0 60142 47700.00000 0 9360806.540 -16473201.025 -17053396.405 10 0 60142 48600.00000 0 9177956.502 -14248032.172 -19041048.141 10 0 60142 49500.00000 0 9163315.161 -11793546.434 -20658151.120 10 0 60142 50400.00000 0 9343243.443 -9170871.460 -21873265.605 10 0 60142 51300.00000 0 9732772.380 -6446406.745 -22662790.734 10 0 60142 52200.00000 0 10334850.513 -3689271.083 -23011421.624 10 0 60142 53100.00000 0 11140117.743 -968645.552 -22912443.353 10 0 60142 54000.00000 0 12127215.258 1648877.482 -22367856.567 10 0 60142 54900.00000 0 13263618.518 4101829.318 -21388332.709 10 0 60142 55800.00000 0 14506958.174 6336178.902 -19993000.166 10 0 60142 56700.00000 0 15806773.226 8307330.394 -18209065.905 10 0 60142 57600.00000 0 17106622.582 9981722.287 -16071280.212 10 0 60142 58500.00000 0 18346466.029 11337962.786 -13621255.274 10 0 60142 59400.00000 0 19465214.364 12367455.742 -10906651.062 10 0 60142 60300.00000 0 20403341.329 13074492.781 -7980244.575 10 0 60142 61200.00000 0 21105447.344 13475809.653 -4898900.816 10 0 60142 62100.00000 0 21522667.198 13599627.299 -1722465.760 10 0 60142 63000.00000 0 21614820.396 13484219.699 1487396.931 10 0 60142 63900.00000 0 21352213.773 13176070.303 4668402.584 10 0 60142 64800.00000 0 20717020.673 12727695.934 7758852.209 10 0 60142 65700.00000 0 19704178.798 12195230.822 10698825.768 10 0 60142 66600.00000 0 18321769.027 11635873.184 13431338.985 10 0 60142 67500.00000 0 16590859.239 11105302.238 15903441.620 10 0 60142 68400.00000 0 14544819.330 10655174.426 18067236.444 10 0 60142 69300.00000 0 12228135.630 10330804.079 19880799.855 10 0 60142 70200.00000 0 9694773.420 10169125.733 21308987.132 10 0 60142 71100.00000 0 7006154.812 10197023.445 22324107.573 10 0 60142 72000.00000 0 4228834.943 10430097.073 22906457.209 10 0 60142 72900.00000 0 1431971.693 10871917.303 23044699.382 10 0 60142 73800.00000 0 -1315307.508 11513800.953 22736086.188 10 0 60142 74700.00000 0 -3946533.927 12335116.586 21986516.492 10 0 60142 75600.00000 0 -6400413.192 13304108.491 20810429.094 10 0 60142 76500.00000 0 -8623125.175 14379205.594 19230532.435 10 0 60142 77400.00000 0 -10570313.517 15510761.602 17277375.190 10 0 60142 78300.00000 0 -12208682.815 16643154.537 14988764.934 10 0 60142 79200.00000 0 -13517137.436 17717158.506 12409045.009 10 0 60142 80100.00000 0 -14487414.746 18672488.714 9588242.541 10 0 60142 81000.00000 0 -15124186.407 19450412.964 6581103.264 10 0 60142 81900.00000 0 -15444623.689 19996319.572 3446031.272 10 0 60142 82800.00000 0 -15477445.156 20262132.861 243954.109 10 0 60142 83700.00000 0 -15261487.127 20208473.430 -2962864.631 10 0 60142 84600.00000 0 -14843857.577 19806470.784 -6112041.624 10 0 60142 85500.00000 0 -14277752.053 19039150.380 -9142294.618 10 0 60143 0.00000 0 -13620024.733 17902335.192 -11994642.811 10 0 60143 900.00000 0 -12928617.873 16405021.651 -14613563.982 10 0 60143 1800.00000 0 -12259960.243 14569214.390 -16948081.138 10 0 60143 2700.00000 0 -11666444.343 12429223.666 -18952761.887 10 0 60143 3600.00000 0 -11194090.774 10030455.459 -20588606.689 10 0 60143 4500.00000 0 -10880498.803 7427743.884 -21823809.997 10 0 60143 5400.00000 0 -10753170.223 4683295.325 -22634379.151 10 0 60143 6300.00000 0 -10828277.483 1864329.904 -23004599.210 10 0 60143 7200.00000 0 -11109928.082 -959481.491 -22927334.983 10 0 60143 8100.00000 0 -11589956.117 -3718678.063 -22404164.837 10 0 60143 9000.00000 0 -12248249.447 -6346657.382 -21445344.126 10 0 60143 9900.00000 0 -13053598.340 -8782201.329 -20069599.411 10 0 60143 10800.00000 0 -13965029.441 -10971775.271 -18303757.840 10 0 60143 11700.00000 0 -14933568.444 -12871505.716 -16182219.226 10 0 60143 12600.00000 0 -15904356.846 -14448755.154 -13746281.377 10 0 60143 13500.00000 0 -16819033.232 -15683229.862 -11043332.023 10 0 60143 14400.00000 0 -17618278.479 -16567575.991 -8125923.293 10 0 60143 15300.00000 0 -18244417.353 -17107440.716 -5050746.986 10 0 60143 16200.00000 0 -18643966.693 -17320997.678 -1877530.827 10 0 60143 17100.00000 0 -18770022.684 -17237958.401 1332122.613 10 0 60143 18000.00000 0 -18584386.542 -16898112.774 4515931.493 10 0 60143 18900.00000 0 -18059339.094 -16349461.405 7612141.425 10 0 60143 19800.00000 0 -17178989.488 -15646019.501 10560719.908 10 0 60143 20700.00000 0 -15940141.267 -14845385.471 13304515.361 10 0 60143 21600.00000 0 -14352639.228 -14006177.023 15790358.675 10 0 60143 22500.00000 0 -12439182.140 -13185442.661 17970086.426 10 0 60143 23400.00000 0 -10234608.593 -12436157.268 19801466.622 10 0 60143 24300.00000 0 -7784684.986 -11804906.597 21249009.864 10 0 60143 25200.00000 0 -5144445.113 -11329857.375 22284651.073 10 0 60143 26100.00000 0 -2376149.208 -11039097.745 22888289.349 10 0 60143 27000.00000 0 453054.170 -10949417.237 23048176.123 10 0 60143 27900.00000 0 3273667.900 -11065577.257 22761144.459 10 0 60143 28800.00000 0 6016483.856 -11380102.787 22032675.083 10 0 60143 29700.00000 0 8615210.333 -11873604.416 20876797.567 10 0 60143 30600.00000 0 11008981.656 -12515617.870 19315827.931 10 0 60143 31500.00000 0 13144646.784 -13265926.640 17379946.813 10 0 60143 32400.00000 0 14978742.621 -14076313.120 15106625.324 10 0 60143 33300.00000 0 16479070.360 -14892665.510 12539908.508 10 0 60143 34200.00000 0 17625809.412 -15657352.524 9729569.271 10 0 60143 35100.00000 0 18412122.428 -16311766.269 6730148.284 10 0 60143 36000.00000 0 18844226.109 -16798926.096 3599897.893 10 0 60143 36900.00000 0 18940924.791 -17066033.107 399650.330 10 0 60143 37800.00000 0 18732626.498 -17066866.656 -2808367.665 10 0 60143 38700.00000 0 18259883.117 -16763920.418 -5961750.324 10 0 60143 39600.00000 0 17571516.639 -16130186.357 -8999134.005 10 0 60143 40500.00000 0 16722411.161 -15150509.698 -11861399.381 10 0 60143 41400.00000 0 15771064.618 -13822456.060 -14492830.305 10 0 60143 42300.00000 0 14777004.544 -12156652.708 -16842205.846 10 0 60143 43200.00000 0 13798177.865 -10176588.150 -18863803.484 10 0 60143 44100.00000 0 12888425.721 -7917877.352 -20518293.426 10 0 60143 45000.00000 0 12095150.558 -5427022.489 -21773506.287 10 0 60143 45900.00000 0 11457274.278 -2759720.446 -22605059.196 10 0 60143 46800.00000 0 11003573.690 21212.678 -22996828.311 10 0 60143 47700.00000 0 10751463.291 2848213.763 -22941258.880 10 0 60143 48600.00000 0 10706276.276 5651542.968 -22439507.243 10 0 60143 49500.00000 0 10861073.494 8361945.412 -21501412.491 10 0 60143 50400.00000 0 11196987.721 10913293.782 -20145298.753 10 0 60143 51300.00000 0 11684087.950 13245102.435 -18397612.372 10 0 60143 52200.00000 0 12282726.523 15304809.026 -16292401.320 10 0 60143 53100.00000 0 12945311.584 17049729.507 -13870647.291 10 0 60143 54000.00000 0 13618429.437 18448606.110 -11179463.693 10 0 60143 54900.00000 0 14245226.726 19482685.032 -8271175.370 10 0 60143 55800.00000 0 14767951.447 20146280.225 -5202298.205 10 0 60143 56700.00000 0 15130545.180 20446801.309 -2032438.722 10 0 60143 57600.00000 0 15281176.907 20404246.037 1176864.696 10 0 60143 58500.00000 0 15174611.284 20050180.163 4363336.212 10 0 60143 59400.00000 0 14774311.389 19426248.961 7465169.178 10 0 60143 60300.00000 0 14054187.193 18582284.096 10422221.635 10 0 60143 61200.00000 0 12999916.003 17574086.293 13177177.522 10 0 60143 62100.00000 0 11609779.111 16460977.504 15676651.442 10 0 60143 63000.00000 0 9894979.117 15303225.617 17872216.096 10 0 60143 63900.00000 0 7879424.030 14159449.682 19721333.126 10 0 60143 64800.00000 0 5598986.331 13084114.136 21188170.174 10 0 60143 65700.00000 0 3100266.803 12125216.487 22244289.172 10 0 60143 66600.00000 0 438913.354 11322264.676 22869193.322 10 0 60143 67500.00000 0 -2322436.782 10704628.177 23050722.775 10 0 60143 68400.00000 0 -5116507.593 10290331.295 22785291.756 10 0 60143 69300.00000 0 -7873931.634 10085338.897 22077962.578 10 0 60143 70200.00000 0 -10525890.065 10083364.387 20942354.813 10 0 60143 71100.00000 0 -13006737.253 10266208.148 19400390.778 10 0 60143 72000.00000 0 -15256502.074 10604612.705 17481881.337 10 0 60143 72900.00000 0 -17223162.843 11059599.266 15223958.969 10 0 60143 73800.00000 0 -18864601.728 11584230.089 12670367.920 10 0 60143 74700.00000 0 -20150157.398 12125723.075 9870624.136 10 0 60143 75600.00000 0 -21061711.045 12627829.809 6879060.348 10 0 60143 76500.00000 0 -21594260.184 13033376.829 3753774.219 10 0 60143 77400.00000 0 -21755955.939 13286862.450 555499.751 10 0 60143 78300.00000 0 -21567602.073 13336998.740 -2653576.036 10 0 60143 79200.00000 0 -21061636.770 13139090.100 -5811027.710 10 0 60143 80100.00000 0 -20280640.209 12657146.493 -8855412.910 10 0 60143 81000.00000 0 -19275431.167 11865640.462 -11727476.065 10 0 60143 81900.00000 0 -18102833.515 10750832.013 -14371309.950 10 0 60143 82800.00000 0 -16823207.481 9311603.808 -16735451.515 10 0 60143 83700.00000 0 -15497850.606 7559769.941 -18773889.893 10 0 60143 84600.00000 0 -14186378.672 5519843.904 -20446966.456 10 0 60143 85500.00000 0 -12944197.605 3228274.341 -21722149.010 99